www.pogodaiklimat.ru

Погода и климат >> Архив погоды >> Россия >> Дагестан >> Махачкала


АРХИВ ПОГОДЫ в Махачкале

Время (UTC), дата Ветер
(напр.,м/с)
 
Видим.   Явления Облачность Т
(С)
Тd
(С)
f
(%)
Тe
(С)
Тes
(С)
Комфортность P
(гПа)
Po
(гПа)
Тmin
(С)
Tmax
(С)
R
(мм)
R24
(мм)
S
(см)
18 18.05 ЮВ 4
{10}
20 км 10/3 600 м
[Sc Ac As]
+15.3 +11.8 80 +14 +14 по сезону 1014.3 1016.4
21 18.05 ЮВ 2 20 км 10/5 600 м
[Sc Ac As]
+14.9 +12.0 83 +15 +15 по сезону 1013.4 1015.6
00 19.05 Ю 1 20 км 9/4 600 м
[Sc Ac As Ci fib]
+14.1 +11.3 83 +14 +14 по сезону 1011.6 1013.7
03 19.05 З 1 20 км 8/4 600 м
[Sc Ac As Ci fib]
+13.7 +12.1 90 +14 +15 по сезону 1010.6 1012.7 +12.2
06 19.05 СЗ 5 10 км 6/4 600 м
[Cu hum Ac cast Ci fib]
+20.3 +13.6 65 +22 +26 комфорт 1010.8 1012.9
09 19.05 ЮВ 3 10 км 9/6 600 м
[Cb calv Ac cast Ci fib]
+17.3 +13.6 79 +17 +21 по сезону 1011.2 1013.4
12 19.05 В 1 10 км 10/6 600 м
[Cb calv Ac As]
+17.2 +13.5 79 +18 +20 по сезону 1011.4 1013.5
15 19.05 З 2 10 км 9/5 600 м
[Sc Ac As Ci fib]
+19.6 +13.6 68 +22 +22 комфорт 1011.1 1013.2 +21.3
18 19.05 З 2 10 км {ливн. осадки} 10/6 600 м
[Sc diur, vesp Ac As]
+16.7 +13.9 84 +17 +17 тепло 1010.6 1012.7
21 19.05 Ю 2 10 км слабый ливневой дождь 10/8 600 м
[Cb cap Ac As]
+16.0 +13.7 86 +16 +16 тепло 1008.7 1010.8
00 20.05 З 2 10 км {ливн. осадки} 10/8 600 м
[Sc diur, vesp Ac As]
+15.6 +13.9 90 +15 +15 по сезону 1009.3 1011.4
03 20.05 штиль 0 20 км 10/6 600 м
[Sc diur, vesp Ac As]
+16.3 +14.0 86 +16 +16 по сезону 1005.7 1007.8 +14.9 4
06 20.05 СЗ 2 4000 м дымка 10/8 600 м
[St Ac trans]
+17.4 +14.3 82 +18 +19 по сезону 1007.2 1009.3
09 20.05 СЗ 4 10 км 10/6 600 м
[Cb calv Ac trans]
+18.8 +13.7 72 +20 +22 тепло 1005.5 1007.6
12 20.05 штиль 0 20 км {ливн. осадки} 10/6 600 м
[Cb calv Ac trans]
+19.0 +13.9 72 +20 +22 тепло 1005.3 1007.4
15 20.05 З 1 10 км 9/6 600 м
[Cb calv Ac trans Ci fib]
+19.2 +14.4 74 +22 +22 комфорт 1005.5 1007.6
18 20.05 З 5
{11}
4000 м дымка 10/6 600 м
[Cb calv Ac trans]
+18.2 +13.1 72 +18 +18 тепло 1009.1 1011.2
21 20.05 З 4
{11}
4000 м дымка {ливн. осадки} 5/3 600 м
[Cb calv Ac trans Ci fib]
+15.1 +13.4 90 +14 +14 по сезону 1006.3 1008.5
00 21.05 З 5
{10}
4000 м дымка {ливн. осадки} 8/6 600 м
[Cb calv Ac trans Ci fib]
+15.7 +13.4 86 +14 +14 по сезону 1006.9 1009.0
03 21.05 З 4 20 км {ливн. осадки} 9/6 600 м
[Cb calv Ac trans Ci fib]
+15.5 +12.9 84 +15 +15 по сезону 1008.2 1010.3 +15.1 5
06 21.05 СЗ 4 20 км {ливн. осадки} 10/6 600 м
[Sc Ac As]
+17.1 +12.7 75 +17 +18 по сезону 1008.0 1010.2
09 21.05 СЗ 3 20 км 10/6 600 м
[Sc Ac As]
+19.3 +11.6 61 +21 +23 комфорт 1007.2 1009.3
12 21.05 З 4 20 км 10/8 600 м
[Cb calv Ac As]
+19.0 +11.6 62 +20 +20 по сезону 1006.7 1008.8
15 21.05 З 3 10 км слабый ливневой дождь 10/10 600 м
[Cb calv]
+17.4 +12.7 74 +17 +17 по сезону 1007.6 1009.7 +19.9
18 21.05 З 3 10 км слабый ливневой дождь 10/10 600 м
[Cb calv]
+16.4 +11.5 73 +16 +16 по сезону 1008.9 1011.0
21 21.05 З 3 20 км {ливн. осадки} 10/6 600 м
[Cb calv Ac As]
+16.7 +10.6 67 +16 +16 по сезону 1008.9 1011.0
00 22.05 З 3 20 км ясно +14.2 +10.0 76 +13 +13 по сезону 1009.3 1011.5
03 22.05 З 3 20 км ясно +16.2 +10.1 67 +16 +17 по сезону 1009.9 1012.0 +13.0
06 22.05 СЗ 3 20 км ясно +20.7 +9.1 47 +23 +33 комфорт 1009.5 1011.6
09 22.05 ЮВ 4 20 км 3/0
[Ci fib]
+19.7 +12.6 64 +21 +33 комфорт 1009.4 1011.5
12 22.05 В 5 20 км 4/0
[Ci fib]
+19.5 +13.0 66 +21 +26 комфорт 1008.3 1010.4
15 22.05 ЮВ 4 20 км 8/0
[Ac As Ci fib]
+18.2 +10.9 62 +18 +19 по сезону 1008.3 1010.4 +22.1
18 22.05 ЮВ 4 50 км ясно +16.4 +11.0 70 +16 +16 по сезону 1009.9 1012.1
21 22.05 ЮВ 3 н/о н/о +15.6 +12.2 80 +15 +15 по сезону 1009.6 1011.8
00 23.05 ЮВ 6 20 км 4/0
[Ci fib]
+15.1 +12.2 83 +13 +13 по сезону 1006.8 1009.0
03 23.05 ЮВ 1
{10}
20 км 3/0
[Ci fib]
+16.2 +11.8 75 +17 +19 по сезону 1008.7 1010.8 +14.8
06 23.05 СВ 2 10 км 10/6 600 м
[Cb cap Ac As]
+17.4 +13.8 79 +18 +19 по сезону 1009.7 1011.9
09 23.05 С 3 10 км 10/6 600 м
[Cb calv Ac As]
+18.4 +14.3 77 +19 +21 по сезону 1011.4 1013.5
12 23.05 СВ 3 10 км 9/6 600 м
[Cb cap Ac As Ci fib]
+17.9 +14.2 79 +18 +20 по сезону 1012.1 1014.2
15 23.05 З 1 10 км 10/8 600 м
[Cb cap Ac As]
+17.8 +13.1 74 +19 +19 по сезону 1012.8 1014.9 +20.1
18 23.05 З 2 10 км 10/8 600 м
[Cb cap Ac As]
+16.8 +14.2 85 +17 +17 по сезону 1014.5 1016.6
21 23.05 СЗ 1 10 км 10/6 600 м
[Sc diur, vesp Ac As]
+16.2 +14.0 87 +17 +17 тепло 1014.6 1016.7
00 24.05 З 1 4000 м дымка 10/8 600 м
[Sc diur, vesp Ac As]
+15.5 +13.6 88 +16 +16 по сезону 1014.5 1016.7
03 24.05 З 2 4000 м дымка 10/8 600 м
[Sc diur, vesp Ac As]
+15.7 +13.7 88 +16 +16 по сезону 1014.7 1016.8 +15.2
06 24.05 штиль 0 20 км 9/6 600 м
[Cb calv Ac trans Ci fib]
+18.0 +13.6 75 +18 +22 по сезону 1014.6 1016.7
09 24.05 В 2 20 км 9/6 600 м
[Cb calv Ac trans Ci fib]
+18.3 +14.1 76 +19 +24 по сезону 1014.1 1016.2
12 24.05 СВ 1 20 км 9/6 600 м
[Cb calv Ac trans Ci fib]
+17.4 +13.2 76 +18 +22 прохладно 1014.9 1017.0
15 24.05 З 2 10 км 9/8 600 м
[Cb calv Ac trans Ci fib]
+17.3 +12.4 73 +18 +18 по сезону 1016.0 1018.2 +18.4
18 24.05 СЗ 3
{10}
4000 м дымка 10/8 600 м
[Cb calv Ac trans]
+13.9 +11.8 87 +13 +13 прохладно 1018.1 1020.3
21 24.05 З 3 4000 м дымка 5/3 600 м
[Cb calv Ac trans Ci fib]
+12.8 +10.4 85 +11 +11 холодно 1017.8 1020.0
00 25.05 З 3 4000 м дымка 4/0
[Ac trans Ci fib]
+10.9 +9.1 89 +9 +9 холодно 1017.7 1019.9
03 25.05 З 5 20 км 4/1 600 м
[Cb calv Ac trans Ci fib]
+12.3 +8.5 78 +10 +11 холодно 1018.3 1020.5 +10.8
06 25.05 СЗ 6
{11}
н/о н/о +18.0 +9.5 58 +17 +17 прохладно 1017.9 1020.0
09 25.05 СЗ 4
{10}
20 км 8/0
[Ac As Ci fib]
+20.2 +9.7 51 +22 +31 комфорт 1017.3 1019.4
12 25.05 З 6-10
{10}
20 км 8/5 600 м
[Cu med, cong Ac As Ci fib]
+21.7 +10.3 48 +23 +25 комфорт 1017.0 1019.1
15 25.05 З 4
{11}
20 км н/о +18.2 +9.3 56 +18 +18 по сезону 1017.8 1019.9 +21.8

 

Местоположение метеостанции Махачкала (Дагестан, Россия): широта 43.02 долгота 47.48 высота над уровнем моря -19 м.

В архиве по умолчанию представлена погода в Махачкале за последнюю неделю. Архивные данные за месяц целиком и за предыдущие месяцы, начиная с января 2011 года, Вы можете получить, выбрав интересующий диапазон дат из раскрывающегося списка и нажав кнопку "Ввод!".

Внимание! Время в таблицах - всемирное. Для получения местного времени необходимо прибавить поправку, которая в Махачкале равна 3 ч.

Смотрите также архив погоды в соседних городах и на ближайших метеорологических станциях:

Погода в Буйнакске (Дагестан, Россия) (37 км)
Погода в Сергокале (Дагестан, Россия) (65 км)
Погода в Изберге (Дагестан, Россия) (65 км)
Погода в Куппе (Дагестан, Россия) (73 км)
Погода в Хасавюрте (Дагестан, Россия) (77 км)
Погода в Гунибе (Дагестан, Россия) (81 км)
Погода в Хунзахе (Дагестан, Россия) (81 км)
Погода в Бабаюрте (Дагестан, Россия) (86 км)
Погода в Кумухе (Дагестан, Россия) (104 км)
Погода в Шелковской (Чечня, Россия) (106 км)

Пояснения к столбцам:

Ветер - указаны скорость ветра в м/с - средняя за 10 мин, порывы в срок и между сроками (в фигурных скобках) и направление, откуда дует ветер: С - северный, СВ - северо-восточный, В - восточный, ЮВ - юго-восточный, Ю - южный, ЮЗ - юго-западный, З - западный, СЗ - северо-западный.
Видимость - горизонтальная дальность видимости в метрах или километрах. При видимости от 1 до 10 км при отсутствии осадков обычно наблюдается дымка, при ухудшении видимости до 1 км и менее - туман. В сухую погоду видимость может ухудшаться дымом, пылью или мглою.
Явления - указаны атмосферные явления, наблюдавшиеся в срок или в последний час перед сроком; фигурными скобками обозначены явления, наблюдавшиеся между сроками (за 1-3 часа до срока); квадратными скобками обозначены град или гололедные отложения с указанием их диаметра в мм.
Облачность - указаны через наклонную черту общая и нижняя облачность в баллах и высота нижней границы облаков в метрах; квадратными скобками обозначены формы облаков: Ci - перистые, Cs - перисто-слоистые, Cc - перисто-кучевые, Ac - высококучевые, As - высокослоистые, Sc - слоисто-кучевые, Ns - слоисто-дождевые, Cu - кучевые, Cb - кучево-дождевые. Подробнее классификацию облаков см. в Атласе облаков (PDF).
T - Температура воздуха - температура, измеренная на высоте 2 м над землей.
Td - Температура точки росы - температура, при понижении до которой содержащийся в воздухе водяной пар достигнет насыщения.
f - Относительная влажность воздуха - влажноcть воздуха, измеренная на высоте 2 м над землей.
Te - Эффективная температура - температура, которую ощущает одетый по сезону человек в тени. Характеристика душности погоды. При расчете учитывается влияние влажности воздуха и скорости ветра на теплоощущения человека.
Tes - Эффективная температура на солнце - температура, которую ощущает человек, с поправкой на солнечный нагрев. Характеристика знойности погоды. Зависит от высоты солнца над горизонтом, облачности и скорости ветра. Ночью, в пасмурную погоду, а также при ветре 12 м/с и более поправка равна нулю.
P - Атмосферное давление - приведенное к уровню моря атмосферное давление.
Po - Атмосферное давление - измеренное на уровне метеостанции атмосферное давление.
Tmin - Минимальная температура - минимум температуры воздуха на высоте 2 м над землей.
Tmax - Максимальная температура - максимум температуры воздуха на высоте 2 м над землей.
R - Количество осадков - Количество выпавших осадков за период времени, мм. При наведении курсора мыши на число - период времени, за который выпало указанное количество осадков.
R24 - Количество осадков - Количество выпавших осадков за 24 часа, мм.
S - Снежный покров - Высота снежного покрова, см. При наведении курсора мыши на число - состояние снежного покрова и степень покрытия местности в баллах.